Time,TemperatureF,DewpointF,PressureIn,WindDirection,WindDirectionDegrees,WindSpeedMPH,WindSpeedGustMPH,Humidity,HourlyPrecipIn,Conditions,Clouds,dailyrainin,SoftwareType,DateUTC
2017-01-18 00:01:00,28.3,28.0,30.05,South,180,4.0,-999.0,98,0.00,,,0.00,,2017-01-18 06:01:00,
2017-01-18 00:07:00,28.2,27.0,30.05,South,180,3.0,-999.0,98,0.00,,,0.00,,2017-01-18 06:07:00,
2017-01-18 00:12:00,27.9,27.0,30.05,SSW,203,2.0,-999.0,98,0.00,,,0.00,,2017-01-18 06:12:00,
2017-01-18 00:17:00,27.6,27.0,30.05,SSW,203,3.0,-999.0,98,0.00,,,0.00,,2017-01-18 06:17:00,
2017-01-18 00:22:00,27.6,27.0,30.05,South,180,4.0,-999.0,98,0.00,,,0.00,,2017-01-18 06:22:00,
2017-01-18 00:27:00,27.5,27.0,30.05,SSW,203,6.0,-999.0,98,0.00,,,0.00,,2017-01-18 06:27:00,
2017-01-18 00:32:00,27.5,27.0,30.05,SW,225,3.0,-999.0,98,0.00,,,0.00,,2017-01-18 06:32:00,
2017-01-18 00:37:00,27.3,27.0,30.02,SSW,203,7.0,-999.0,98,0.00,,,0.00,,2017-01-18 06:37:00,
2017-01-18 00:42:00,27.1,26.0,30.02,SSW,203,5.0,-999.0,98,0.00,,,0.00,,2017-01-18 06:42:00,
2017-01-18 00:47:00,27.0,26.0,30.06,South,180,4.0,-999.0,98,0.00,,,0.00,,2017-01-18 06:47:00,
2017-01-18 00:52:00,26.7,26.0,30.00,SSE,158,3.0,-999.0,98,0.00,,,0.00,,2017-01-18 06:52:00,
2017-01-18 00:57:00,26.3,26.0,30.02,South,180,3.0,-999.0,98,0.00,,,0.00,,2017-01-18 06:57:00,
2017-01-18 01:02:00,26.2,25.0,30.02,South,180,3.0,-999.0,98,0.00,,,0.00,,2017-01-18 07:02:00,
2017-01-18 01:07:00,26.1,25.0,30.01,South,180,3.0,-999.0,98,0.00,,,0.00,,2017-01-18 07:07:00,
2017-01-18 01:13:00,26.1,25.0,30.01,South,180,4.0,-999.0,98,0.00,,,0.00,,2017-01-18 07:13:00,
2017-01-18 01:18:00,25.7,25.0,30.03,SSE,158,3.0,-999.0,98,0.00,,,0.00,,2017-01-18 07:18:00,
2017-01-18 01:23:00,25.7,25.0,30.02,South,180,3.0,-999.0,98,0.00,,,0.00,,2017-01-18 07:23:00,
2017-01-18 01:28:00,25.4,25.0,30.03,SSW,203,4.0,-999.0,98,0.00,,,0.00,,2017-01-18 07:28:00,
2017-01-18 01:33:00,25.4,25.0,30.02,SSW,203,5.0,-999.0,98,0.00,,,0.00,,2017-01-18 07:33:00,
2017-01-18 01:38:00,25.4,25.0,30.03,SSW,203,6.0,-999.0,98,0.00,,,0.00,,2017-01-18 07:38:00,
2017-01-18 01:43:00,25.4,25.0,30.00,SSW,203,3.0,-999.0,98,0.00,,,0.00,,2017-01-18 07:43:00,
2017-01-18 01:48:00,25.4,25.0,30.03,SSW,203,4.0,-999.0,98,0.00,,,0.00,,2017-01-18 07:48:00,
2017-01-18 01:54:00,25.2,25.0,29.99,SSW,203,3.0,-999.0,98,0.00,,,0.00,,2017-01-18 07:54:00,
2017-01-18 01:59:00,25.2,25.0,29.99,South,180,5.0,-999.0,98,0.00,,,0.00,,2017-01-18 07:59:00,
2017-01-18 02:05:00,25.2,25.0,29.99,SSW,203,5.0,-999.0,98,0.00,,,0.00,,2017-01-18 08:05:00,
2017-01-18 02:10:00,25.2,25.0,30.02,South,180,3.0,-999.0,98,0.00,,,0.00,,2017-01-18 08:10:00,
2017-01-18 02:15:00,25.1,24.0,30.01,SSW,203,4.0,-999.0,98,0.00,,,0.00,,2017-01-18 08:15:00,
2017-01-18 02:20:00,25.1,24.0,30.01,SSE,158,6.0,-999.0,98,0.00,,,0.00,,2017-01-18 08:20:00,
2017-01-18 02:25:00,25.1,24.0,30.03,SSW,203,4.0,-999.0,98,0.00,,,0.00,,2017-01-18 08:25:00,
2017-01-18 02:30:00,25.1,24.0,30.02,SSE,158,4.0,-999.0,98,0.00,,,0.00,,2017-01-18 08:30:00,
2017-01-18 02:35:00,25.1,24.0,30.03,SSW,203,4.0,-999.0,98,0.00,,,0.00,,2017-01-18 08:35:00,
2017-01-18 02:40:00,25.1,24.0,30.02,South,180,4.0,-999.0,98,0.00,,,0.00,,2017-01-18 08:40:00,
2017-01-18 02:45:00,25.1,24.0,30.03,SSW,203,4.0,-999.0,98,0.00,,,0.00,,2017-01-18 08:45:00,
2017-01-18 02:50:00,25.0,24.0,30.02,South,180,4.0,-999.0,98,0.00,,,0.00,,2017-01-18 08:50:00,
2017-01-18 02:55:00,25.0,24.0,30.05,South,180,2.0,-999.0,98,0.00,,,0.00,,2017-01-18 08:55:00,
2017-01-18 03:00:00,25.0,24.0,30.05,SSW,203,3.0,-999.0,98,0.00,,,0.00,,2017-01-18 09:00:00,
2017-01-18 03:06:00,24.8,24.0,29.99,South,180,3.0,-999.0,98,0.00,,,0.00,,2017-01-18 09:06:00,
2017-01-18 03:11:00,24.6,24.0,29.99,South,180,3.0,-999.0,98,0.00,,,0.00,,2017-01-18 09:11:00,
2017-01-18 03:16:00,24.4,24.0,29.99,South,180,3.0,-999.0,98,0.00,,,0.00,,2017-01-18 09:16:00,
2017-01-18 03:21:00,24.4,24.0,30.01,SSW,203,2.0,-999.0,98,0.00,,,0.00,,2017-01-18 09:21:00,
2017-01-18 03:26:00,24.2,24.0,29.99,South,180,2.0,-999.0,98,0.00,,,0.00,,2017-01-18 09:26:00,
2017-01-18 03:31:00,24.2,24.0,30.01,SSW,203,2.0,-999.0,98,0.00,,,0.00,,2017-01-18 09:31:00,
2017-01-18 03:36:00,24.1,23.0,30.00,South,180,2.0,-999.0,98,0.00,,,0.00,,2017-01-18 09:36:00,
2017-01-18 03:41:00,24.4,24.0,30.01,SSW,203,2.0,-999.0,98,0.00,,,0.00,,2017-01-18 09:41:00,
2017-01-18 03:46:00,24.4,24.0,30.00,SSE,158,3.0,-999.0,98,0.00,,,0.00,,2017-01-18 09:46:00,
2017-01-18 03:51:00,24.6,24.0,30.01,SSW,203,3.0,-999.0,98,0.00,,,0.00,,2017-01-18 09:51:00,
2017-01-18 03:56:00,24.4,24.0,30.00,SSE,158,2.0,-999.0,98,0.00,,,0.00,,2017-01-18 09:56:00,
2017-01-18 04:01:00,24.4,24.0,30.03,SSW,203,3.0,-999.0,98,0.00,,,0.00,,2017-01-18 10:01:00,
2017-01-18 04:06:00,24.6,24.0,30.03,SSW,203,4.0,-999.0,98,0.00,,,0.00,,2017-01-18 10:06:00,
2017-01-18 04:11:00,24.8,24.0,29.97,SW,225,3.0,-999.0,98,0.00,,,0.00,,2017-01-18 10:11:00,
2017-01-18 04:16:00,25.0,24.0,30.00,SSW,203,5.0,-999.0,98,0.00,,,0.00,,2017-01-18 10:16:00,
2017-01-18 04:21:00,25.0,24.0,29.96,SSW,203,2.0,-999.0,98,0.00,,,0.00,,2017-01-18 10:21:00,
2017-01-18 04:27:00,25.0,24.0,29.96,SSW,203,4.0,-999.0,98,0.00,,,0.00,,2017-01-18 10:27:00,
2017-01-18 04:33:00,25.0,24.0,29.97,WSW,248,2.0,-999.0,98,0.00,,,0.00,,2017-01-18 10:33:00,
2017-01-18 04:38:00,25.0,24.0,29.99,SSW,203,5.0,-999.0,98,0.00,,,0.00,,2017-01-18 10:38:00,
2017-01-18 04:43:00,25.2,25.0,29.96,South,180,3.0,-999.0,98,0.00,,,0.00,,2017-01-18 10:43:00,
2017-01-18 04:48:00,25.2,25.0,30.01,SSE,158,4.0,-999.0,98,0.00,,,0.00,,2017-01-18 10:48:00,
2017-01-18 04:53:00,25.4,25.0,29.97,SW,225,7.0,-999.0,98,0.00,,,0.00,,2017-01-18 10:53:00,
2017-01-18 04:58:00,25.4,25.0,29.99,SSW,203,5.0,-999.0,98,0.00,,,0.00,,2017-01-18 10:58:00,
2017-01-18 05:03:00,25.7,25.0,29.96,South,180,6.0,-999.0,98,0.00,,,0.00,,2017-01-18 11:03:00,
2017-01-18 05:08:00,25.9,25.0,29.98,SSW,203,7.0,-999.0,98,0.00,,,0.00,,2017-01-18 11:08:00,
2017-01-18 05:13:00,26.3,26.0,29.97,SSW,203,7.0,-999.0,98,0.00,,,0.00,,2017-01-18 11:13:00,
2017-01-18 05:18:00,26.7,26.0,29.98,South,180,7.0,-999.0,98,0.00,,,0.00,,2017-01-18 11:18:00,
2017-01-18 05:23:00,26.7,26.0,29.96,South,180,8.0,-999.0,98,0.00,,,0.00,,2017-01-18 11:23:00,
2017-01-18 05:28:00,27.0,26.0,29.97,SSE,158,5.0,-999.0,98,0.00,,,0.00,,2017-01-18 11:28:00,
2017-01-18 05:34:00,27.0,26.0,29.96,SSE,158,5.0,-999.0,98,0.00,,,0.00,,2017-01-18 11:34:00,
2017-01-18 05:39:00,27.0,26.0,29.96,WNW,293,5.0,-999.0,98,0.00,,,0.00,,2017-01-18 11:39:00,
2017-01-18 05:44:00,27.1,26.0,29.95,SSW,203,6.0,-999.0,98,0.00,,,0.00,,2017-01-18 11:44:00,
2017-01-18 05:49:00,27.1,26.0,29.95,SSE,158,5.0,-999.0,98,0.00,,,0.00,,2017-01-18 11:49:00,
2017-01-18 05:54:00,27.1,26.0,29.96,SW,225,5.0,-999.0,98,0.00,,,0.00,,2017-01-18 11:54:00,
2017-01-18 05:59:00,27.5,27.0,29.94,SSW,203,7.0,-999.0,98,0.00,,,0.00,,2017-01-18 11:59:00,
2017-01-18 06:04:00,27.5,27.0,29.98,SSW,203,7.0,-999.0,98,0.00,,,0.00,,2017-01-18 12:04:00,
2017-01-18 06:09:00,27.5,27.0,29.96,SSW,203,7.0,-999.0,98,0.00,,,0.00,,2017-01-18 12:09:00,
2017-01-18 06:14:00,27.5,27.0,29.95,South,180,5.0,-999.0,98,0.00,,,0.00,,2017-01-18 12:14:00,
2017-01-18 06:19:00,27.5,27.0,29.97,SSW,203,9.0,-999.0,98,0.00,,,0.00,,2017-01-18 12:19:00,
2017-01-18 06:24:00,27.6,27.0,29.95,SSW,203,10.0,-999.0,98,0.00,,,0.00,,2017-01-18 12:24:00,
2017-01-18 06:29:00,27.8,27.0,29.94,SW,225,8.0,-999.0,98,0.00,,,0.00,,2017-01-18 12:29:00,
2017-01-18 06:34:00,27.8,27.0,29.97,South,180,5.0,-999.0,98,0.00,,,0.00,,2017-01-18 12:34:00,
2017-01-18 06:39:00,27.8,27.0,29.96,SSW,203,6.0,-999.0,98,0.00,,,0.00,,2017-01-18 12:39:00,
2017-01-18 06:44:00,27.8,27.0,29.98,SSW,203,7.0,-999.0,98,0.00,,,0.00,,2017-01-18 12:44:00,
2017-01-18 06:49:00,27.6,27.0,29.97,SSW,203,7.0,-999.0,98,0.00,,,0.00,,2017-01-18 12:49:00,
2017-01-18 06:54:00,27.5,27.0,29.97,SSW,203,5.0,-999.0,98,0.00,,,0.00,,2017-01-18 12:54:00,
2017-01-18 06:59:00,27.5,27.0,29.97,SSW,203,7.0,-999.0,98,0.00,,,0.00,,2017-01-18 12:59:00,
2017-01-18 07:04:00,27.5,27.0,29.97,SSW,203,6.0,-999.0,98,0.00,,,0.00,,2017-01-18 13:04:00,
2017-01-18 07:09:00,27.5,27.0,29.98,South,180,6.0,-999.0,98,0.00,,,0.00,,2017-01-18 13:09:00,
2017-01-18 07:14:00,27.5,27.0,29.95,South,180,8.0,-999.0,98,0.00,,,0.00,,2017-01-18 13:14:00,
2017-01-18 07:19:00,27.5,27.0,29.97,South,180,5.0,-999.0,98,0.00,,,0.00,,2017-01-18 13:19:00,
2017-01-18 07:24:00,27.5,27.0,29.93,SW,225,4.0,-999.0,98,0.00,,,0.00,,2017-01-18 13:24:00,
2017-01-18 07:29:00,27.5,27.0,29.95,SSE,158,3.0,-999.0,98,0.00,,,0.00,,2017-01-18 13:29:00,
2017-01-18 07:34:00,27.5,27.0,29.92,SSW,203,4.0,-999.0,98,0.00,,,0.00,,2017-01-18 13:34:00,
2017-01-18 07:39:00,27.3,26.0,29.92,South,180,4.0,-999.0,98,0.00,,,0.00,,2017-01-18 13:39:00,
2017-01-18 07:44:00,27.3,26.0,29.94,SSW,203,6.0,-999.0,98,0.00,,,0.00,,2017-01-18 13:44:00,
2017-01-18 07:49:00,27.5,27.0,29.92,South,180,4.0,-999.0,98,0.00,,,0.00,,2017-01-18 13:49:00,
2017-01-18 07:55:00,27.5,27.0,29.92,SW,225,6.0,-999.0,98,0.00,,,0.00,,2017-01-18 13:55:00,
2017-01-18 08:00:00,27.5,27.0,29.94,South,180,5.0,-999.0,98,0.00,,,0.00,,2017-01-18 14:00:00,
2017-01-18 08:05:00,27.6,27.0,29.93,West,270,2.0,-999.0,98,0.00,,,0.00,,2017-01-18 14:05:00,
2017-01-18 08:10:00,27.6,27.0,29.95,SSW,203,3.0,-999.0,98,0.00,,,0.00,,2017-01-18 14:10:00,
2017-01-18 08:15:00,27.6,27.0,29.96,South,180,4.0,-999.0,98,0.00,,,0.00,,2017-01-18 14:15:00,
2017-01-18 08:20:00,27.9,27.0,29.92,SSW,203,5.0,-999.0,98,0.00,,,0.00,,2017-01-18 14:20:00,
2017-01-18 08:25:00,28.2,27.0,29.95,South,180,3.0,-999.0,96,0.00,,,0.00,,2017-01-18 14:25:00,
2017-01-18 08:30:00,28.2,27.0,29.92,SSW,203,5.0,-999.0,96,0.00,,,0.00,,2017-01-18 14:30:00,
2017-01-18 08:35:00,28.6,27.0,29.93,SW,225,4.0,-999.0,96,0.00,,,0.00,,2017-01-18 14:35:00,
2017-01-18 08:40:00,29.2,28.0,29.96,SW,225,2.0,-999.0,96,0.00,,,0.00,,2017-01-18 14:40:00,
2017-01-18 08:45:00,29.2,28.0,29.94,SSW,203,4.0,-999.0,95,0.00,,,0.00,,2017-01-18 14:45:00,
2017-01-18 08:50:00,29.6,28.0,29.96,SSW,203,2.0,-999.0,93,0.00,,,0.00,,2017-01-18 14:50:00,
2017-01-18 08:55:00,30.0,28.0,29.95,SW,225,2.0,-999.0,93,0.00,,,0.00,,2017-01-18 14:55:00,
2017-01-18 09:00:00,30.1,28.0,29.96,SE,135,6.0,-999.0,93,0.00,,,0.00,,2017-01-18 15:00:00,
2017-01-18 09:06:00,30.3,28.0,29.96,SSE,158,5.0,-999.0,93,0.00,,,0.00,,2017-01-18 15:06:00,
2017-01-18 09:11:00,30.5,28.0,29.96,South,180,4.0,-999.0,93,0.00,,,0.00,,2017-01-18 15:11:00,
2017-01-18 09:16:00,30.7,28.0,29.97,SSW,203,6.0,-999.0,91,0.00,,,0.00,,2017-01-18 15:16:00,
2017-01-18 09:22:00,31.1,28.0,29.98,SSW,203,6.0,-999.0,91,0.00,,,0.00,,2017-01-18 15:22:00,
2017-01-18 09:31:00,31.6,29.0,29.99,SSW,203,7.0,-999.0,90,0.00,,,0.00,,2017-01-18 15:31:00,
2017-01-18 09:40:00,32.2,29.0,29.96,SSW,203,10.0,-999.0,88,0.00,,,0.00,,2017-01-18 15:40:00,
2017-01-18 09:46:00,32.4,29.0,29.97,SSW,203,8.0,-999.0,88,0.00,,,0.00,,2017-01-18 15:46:00,
2017-01-18 09:51:00,32.6,29.0,29.96,ESE,113,5.0,-999.0,88,0.00,,,0.00,,2017-01-18 15:51:00,
2017-01-18 09:56:00,32.9,29.0,29.97,SSW,203,5.0,-999.0,88,0.00,,,0.00,,2017-01-18 15:56:00,
2017-01-18 10:02:00,33.0,29.0,29.96,SSW,203,6.0,-999.0,86,0.00,,,0.00,,2017-01-18 16:02:00,
2017-01-18 10:08:00,33.5,30.0,29.96,SSW,203,3.0,-999.0,86,0.00,,,0.00,,2017-01-18 16:08:00,
2017-01-18 10:14:00,34.0,30.0,29.96,South,180,7.0,-999.0,86,0.00,,,0.00,,2017-01-18 16:14:00,
2017-01-18 10:19:00,34.2,30.0,29.96,South,180,5.0,-999.0,85,0.00,,,0.00,,2017-01-18 16:19:00,